Weather History for KD60 - August, 2014

Change the Weather History Date:

Wednesday, August 27, 2014

  Actual Average (KISN) Record (KISN)
Temperature  
Mean Temperature 60 °F 66 °F  
Max Temperature 78 °F 81 °F 100 °F (1991)
Min Temperature 42 °F 51 °F 35 °F (1982)
Degree Days  
Heating Degree Days 5 3  
Month to date heating degree days 36  
Since 1 June heating degree days 180  
Since 1 July heating degree days 60  
Cooling Degree Days 0 3  
Month to date cooling degree days 154  
Year to date cooling degree days 417  
Since 1 June cooling degree days 404  
Growing Degree Days 10 (Base 50)    
Moisture  
Dew Point 54 °F    
Average Humidity 78    
Maximum Humidity 100    
Minimum Humidity 44    
Precipitation  
Precipitation 0.00 in 0.05 in 1.50 in (1903)
Month to date precipitation 1.28  
Year to date precipitation 10.95  
Snow  
Snow 0.00 in 0.00 in T in (1983)
Month to date snowfall 0.0  
Since 1 June snowfall 0.0  
Since 1 July snowfall 0.0  
Snow Depth -    
Sea Level Pressure  
Sea Level Pressure 30.10 in    
Wind  
Wind Speed 7 mph (SSE)    
Max Wind Speed 16 mph    
Max Gust Speed 23 mph    
Visibility 8 miles    
Events Fog    
T = Trace of Precipitation, MM = Missing Value Source: NWS Daily Summary

Daily Weather History Graph

Daily Weather History Graph

Search for Another Location

Airport or City:

Trip Planner

Search our weather history database for the weather conditions in past years. The results will help you decide how hot, cold, wet, or windy it might be!

Date:

Astronomy

Aug. 27, 2014 Rise Set
Actual Time 7:02 AM CDT 8:42 PM CDT
Civil Twilight 6:29 AM CDT 9:15 PM CDT
Nautical Twilight 5:48 AM CDT 9:55 PM CDT
Astronomical Twilight 5:04 AM CDT 10:39 PM CDT
Moon 9:13 AM CDT (8/27) 9:21 PM CDT (8/27)
Length of Visible Light 14h 46m
Length of Day
13h 40m
Waxing Crescent, 4% of the Moon is Illuminated
Aug 27
Waxing Crescent
Sep 2
First Quarter
Sep 8
Full
Sep 15
Last Quarter
Sep 24
New

Hourly Weather History & Observations

Time (CDT) Temp. Windchill Dew Point Humidity Pressure Visibility Wind Dir Wind Speed Gust Speed Precip Events Conditions
12:15 AM 51.8 °F - 51.8 °F 100% 30.17 in 10.0 mi SSE 6.9 mph - N/A   Clear
12:35 AM 51.8 °F - 51.8 °F 100% 30.17 in 10.0 mi South 6.9 mph - N/A   Clear
12:55 AM 53.6 °F - 53.6 °F 100% 30.17 in 10.0 mi South 10.4 mph - N/A   Clear
1:15 AM 53.6 °F - 53.6 °F 100% 30.17 in 10.0 mi South 9.2 mph - N/A   Clear
1:55 AM 53.6 °F - 53.6 °F 100% 30.17 in 10.0 mi South 8.1 mph - N/A   Clear
2:15 AM 53.6 °F - 53.6 °F 100% 30.17 in 10.0 mi South 3.5 mph - N/A   Clear
2:35 AM 53.6 °F - 53.6 °F 100% 30.17 in 10.0 mi South 5.8 mph - N/A   Clear
2:55 AM 53.6 °F - 53.6 °F 100% 30.17 in 10.0 mi South 6.9 mph - N/A   Clear
3:15 AM 51.8 °F - 51.8 °F 100% 30.17 in 10.0 mi South 3.5 mph - N/A   Clear
3:35 AM 51.8 °F - 51.8 °F 100% 30.16 in 10.0 mi Calm Calm - N/A   Clear
3:55 AM 50.0 °F - 50.0 °F 100% 30.16 in 10.0 mi Calm Calm - N/A   Clear
4:15 AM 48.2 °F - 48.2 °F 100% 30.16 in 7.0 mi Calm Calm - N/A   Clear
4:35 AM 48.2 °F - 48.2 °F 100% 30.16 in 1.2 mi Calm Calm - N/A   Clear
4:55 AM 48.2 °F - 48.2 °F 100% 30.16 in 2.5 mi SE 3.5 mph - N/A   Clear
5:15 AM 46.4 °F - 46.4 °F 100% 30.16 in 0.5 mi Calm Calm - N/A Fog Fog
5:35 AM 46.4 °F - 46.4 °F 100% 30.16 in 0.5 mi Calm Calm - N/A Fog Fog
5:55 AM 44.6 °F - 44.6 °F 100% 30.16 in 0.2 mi Calm Calm - N/A Fog Fog
6:15 AM 44.6 °F 42.2 °F 44.6 °F 100% 30.15 in 0.2 mi ENE 4.6 mph - N/A Fog Fog
6:35 AM 44.6 °F 43.1 °F 44.6 °F 100% 30.15 in 0.2 mi East 3.5 mph - N/A Fog Fog
6:55 AM 42.8 °F 41.1 °F 42.8 °F 100% 30.15 in 0.2 mi East 3.5 mph - N/A Fog Fog
7:15 AM 42.8 °F 41.1 °F 42.8 °F 100% 30.16 in 0.2 mi ENE 3.5 mph - N/A Fog Fog
7:35 AM 44.6 °F 43.1 °F 44.6 °F 100% 30.16 in 0.2 mi ENE 3.5 mph - N/A Fog Fog
7:55 AM 46.4 °F - 46.4 °F 100% 30.16 in 0.2 mi Calm Calm - N/A Fog Fog
8:15 AM 48.2 °F - 48.2 °F 100% 30.16 in 0.2 mi ENE 3.5 mph - N/A Fog Fog
8:35 AM 50.0 °F - 50.0 °F 100% 30.16 in 0.2 mi East 3.5 mph - N/A Fog Fog
8:55 AM 53.6 °F - 53.6 °F 100% 30.15 in 0.2 mi East 3.5 mph - N/A Fog Fog
9:15 AM 55.4 °F - 55.4 °F 100% 30.15 in 10.0 mi Calm Calm - N/A   Scattered Clouds
9:35 AM 57.2 °F - 57.2 °F 100% 30.15 in 10.0 mi South 4.6 mph - N/A   Clear
10:15 AM 64.4 °F - 64.4 °F 100% 30.15 in 10.0 mi South 9.2 mph - N/A   Clear
10:35 AM 66.2 °F - 64.4 °F 94% 30.14 in 10.0 mi South 8.1 mph - N/A   Clear
10:55 AM 68.0 °F - 64.4 °F 88% 30.14 in 10.0 mi South 9.2 mph - N/A   Clear
11:15 AM 71.6 °F - 62.6 °F 73% 30.13 in 10.0 mi South 11.5 mph 16.1 mph N/A   Clear
11:35 AM 69.8 °F - 62.6 °F 78% 30.13 in 10.0 mi South 12.7 mph 18.4 mph N/A   Clear
11:55 AM 71.6 °F - 62.6 °F 73% 30.13 in 10.0 mi South 9.2 mph 18.4 mph N/A   Clear
12:15 PM 71.6 °F - 62.6 °F 73% 30.12 in 10.0 mi South 10.4 mph 16.1 mph N/A   Clear
12:35 PM 73.4 °F - 59.0 °F 61% 30.12 in 10.0 mi South 12.7 mph 18.4 mph N/A   Clear
12:55 PM 73.4 °F - 57.2 °F 57% 30.11 in 10.0 mi South 12.7 mph 17.3 mph N/A   Clear
1:15 PM 75.2 °F - 57.2 °F 53% 30.10 in 10.0 mi South 11.5 mph 18.4 mph N/A   Clear
1:35 PM 75.2 °F - 55.4 °F 50% 30.10 in 10.0 mi South 13.8 mph 20.7 mph N/A   Clear
1:55 PM 75.2 °F - 53.6 °F 47% 30.09 in 10.0 mi SSW 12.7 mph 18.4 mph N/A   Clear
2:15 PM 77.0 °F - 55.4 °F 47% 30.08 in 10.0 mi South 10.4 mph 18.4 mph N/A   Clear
2:35 PM 77.0 °F - 55.4 °F 47% 30.08 in 10.0 mi South 10.4 mph 23.0 mph N/A   Clear
2:55 PM 77.0 °F - 55.4 °F 47% 30.07 in 10.0 mi South 12.7 mph 18.4 mph N/A   Clear
3:15 PM 77.0 °F - 55.4 °F 47% 30.07 in 10.0 mi South 13.8 mph - N/A   Clear
3:35 PM 77.0 °F - 55.4 °F 47% 30.06 in 10.0 mi SSE 11.5 mph 18.4 mph N/A   Clear
3:55 PM 77.0 °F - 55.4 °F 47% 30.06 in 10.0 mi South 15.0 mph - N/A   Clear
4:15 PM 77.0 °F - 55.4 °F 47% 30.05 in 10.0 mi SSE 13.8 mph 20.7 mph N/A   Clear
4:35 PM 78.8 °F - 55.4 °F 44% 30.04 in 10.0 mi South 16.1 mph 23.0 mph N/A   Clear
4:55 PM 78.8 °F - 55.4 °F 44% 30.04 in 10.0 mi South 15.0 mph 20.7 mph N/A   Clear
5:15 PM 78.8 °F - 55.4 °F 44% 30.03 in 10.0 mi South 15.0 mph 20.7 mph N/A   Clear
5:35 PM 78.8 °F - 55.4 °F 44% 30.03 in 10.0 mi SSE 12.7 mph 20.7 mph N/A   Clear
5:55 PM 77.0 °F - 55.4 °F 47% 30.03 in 10.0 mi South 15.0 mph 21.9 mph N/A   Clear
6:15 PM 78.8 °F - 55.4 °F 44% 30.03 in 10.0 mi South 16.1 mph 20.7 mph N/A   Clear
6:35 PM 77.0 °F - 53.6 °F 44% 30.02 in 10.0 mi South 13.8 mph 19.6 mph N/A   Clear
6:55 PM 77.0 °F - 53.6 °F 44% 30.02 in 10.0 mi SSE 13.8 mph - N/A   Clear
7:15 PM 77.0 °F - 55.4 °F 47% 30.01 in 10.0 mi SSE 13.8 mph - N/A   Clear
7:35 PM 75.2 °F - 55.4 °F 50% 30.01 in 10.0 mi SSE 11.5 mph - N/A   Clear
7:55 PM 75.2 °F - 55.4 °F 50% 30.01 in 10.0 mi SSE 9.2 mph - N/A   Clear
8:15 PM 71.6 °F - 57.2 °F 60% 30.00 in 10.0 mi SSE 8.1 mph - N/A   Clear
8:35 PM 68.0 °F - 57.2 °F 68% 30.00 in 10.0 mi South 10.4 mph - N/A   Clear
8:55 PM 66.2 °F - 57.2 °F 73% 30.00 in 10.0 mi South 11.5 mph - N/A   Clear
9:15 PM 66.2 °F - 55.4 °F 68% 30.00 in 10.0 mi South 10.4 mph - N/A   Clear
9:35 PM 66.2 °F - 55.4 °F 68% 30.01 in 10.0 mi South 10.4 mph - N/A   Clear
9:55 PM 66.2 °F - 57.2 °F 73% 30.00 in 10.0 mi SSE 8.1 mph - N/A   Clear
10:15 PM 64.4 °F - 59.0 °F 83% 30.00 in 10.0 mi SSE 9.2 mph - N/A   Clear
10:35 PM 64.4 °F - 59.0 °F 83% 30.00 in 10.0 mi SSE 9.2 mph - N/A   Clear
10:55 PM 62.6 °F - 62.6 °F 100% 30.00 in 10.0 mi SSE 9.2 mph - N/A   Clear
11:15 PM 62.6 °F - 62.6 °F 100% 29.99 in 10.0 mi SSE 9.2 mph - N/A   Clear
11:35 PM 62.6 °F - 62.6 °F 100% 29.99 in 10.0 mi SSE 6.9 mph - N/A   Partly Cloudy